Overview Statistics Trail Chart Weather Telemetry Raw packets
 

This is the latest recevied weather packets stored in our database for station/object N0HOT. If no packets are shown the sender has not sent any weather packets the latest 10 day(s).

<< 73 74 75 76 77 78 79 >>
Time Temp. Humidity Pressure Rain* Wind** Luminosity Snow
1788130524 26.11° C 71% 1010.1 hPa 0 mm - 19 W/m² -
1788130224 26.67° C 71% 1010.1 hPa 0 mm - 23 W/m² -
1788129922 26.67° C 70% 1009.8 hPa 0 mm - 29 W/m² -
1788129620 27.22° C 71% 1010.1 hPa 0 mm - 28 W/m² -
1788129316 27.22° C 70% 1009.8 hPa 0 mm - 35 W/m² -
1788129016 27.22° C 71% 1010.1 hPa 0 mm - 62 W/m² -
1788128710 27.22° C 69% 1009.4 hPa 0 mm - 38 W/m² -
1788128406 27.22° C 67% 1009.8 hPa 0 mm - 50 W/m² -
1788128102 27.78° C 66% 1010.1 hPa 0 mm - 76 W/m² -
1788127798 27.78° C 64% 1009.8 hPa 0 mm - 109 W/m² -
1788127497 27.78° C 67% 1010.1 hPa 0 mm - 131 W/m² -
1788127194 27.78° C 66% 1010.1 hPa 0 mm - 80 W/m² -
1788126890 27.78° C 68% 1010.1 hPa 0 mm - 93 W/m² -
1788126584 27.78° C 65% 1010.1 hPa 0 mm - 110 W/m² -
1788126280 27.78° C 67% 1009.8 hPa 0 mm - 111 W/m² -
1788125974 28.33° C 66% 1009.8 hPa 0 mm - 127 W/m² -
1788125677 28.89° C 65% 1009.8 hPa 0 mm - 167 W/m² -
1788125366 28.89° C 65% 1009.4 hPa 0 mm - 73 W/m² -
1788125061 28.89° C 63% 1009.8 hPa 0 mm - 84 W/m² -
1788124760 29.44° C 62% 1009.4 hPa 0 mm - 96 W/m² -
1788124455 28.89° C 60% 1009.4 hPa 0 mm - 131 W/m² -
1788124151 28.89° C 58% 1009.4 hPa 0 mm - 221 W/m² -
1788123850 28.89° C 61% 1009.4 hPa 0 mm - 374 W/m² -
1788123547 28.33° C 57% 1009.4 hPa 0 mm - 417 W/m² -
1788123262 28.33° C 60% 1009.4 hPa 0 mm - 324 W/m² -

* Rain latest hour (hover to see other rain measurements)
** Current wind speed in m/s (hover to see current wind gust speed)